Weather History for KLJF - March, 2013

Change the Weather History Date:

Friday, March 1, 2013

  Actual Average Record
Temperature  
Mean Temperature 19 °F -  
Max Temperature 26 °F 35 °F 59 °F (1990)
Min Temperature 12 °F 16 °F -32 °F (1962)
Degree Days  
Heating Degree Days 46    
Moisture  
Dew Point 16 °F    
Average Humidity 82    
Maximum Humidity 93    
Minimum Humidity 69    
Precipitation  
Precipitation 0.00 in - - ()
Sea Level Pressure  
Sea Level Pressure 30.31 in    
Wind  
Wind Speed 6 mph (North)    
Max Wind Speed 10 mph    
Max Gust Speed -    
Visibility 10 miles    
Events      
Averages and records for this station are not official NWS values.
T = Trace of Precipitation, MM = Missing Value Source: NWS Daily Summary

Daily Weather History Graph

Daily Weather History Graph

Search for Another Location

Airport or City:

Trip Planner

Search our weather history database for the weather conditions in past years. The results will help you decide how hot, cold, wet, or windy it might be!

Date:

Astronomy

Mar. 01, 2013 Rise Set
Actual Time 6:55 AM CST 6:05 PM CST
Civil Twilight 6:26 AM CST 6:35 PM CST
Nautical Twilight 5:52 AM CST 7:09 PM CST
Astronomical Twilight 5:17 AM CST 7:43 PM CST
Moon 10:55 PM CST (3/1) 8:29 AM CST (3/1)
Length of Visible Light 12h 09m
Length of Day
11h 10m
Waning Gibbous, 83% of the Moon is Illuminated
Mar 1
Waning Gibbous
Mar 4
Last Quarter
Mar 11
New
Mar 19
First Quarter
Mar 27
Full

Hourly Weather History & Observations

Time (CST) Temp. Windchill Dew Point Humidity Pressure Visibility Wind Dir Wind Speed Gust Speed Precip Events Conditions
12:12 AM 17.6 °F 8.2 °F 15.8 °F 93% 30.22 in 10.0 mi North 6.9 mph - N/A   Clear
12:33 AM 17.6 °F 8.2 °F 14.0 °F 86% 30.22 in 10.0 mi North 6.9 mph - N/A   Clear
12:52 AM 17.6 °F 8.2 °F 14.0 °F 86% 30.22 in 10.0 mi NNE 6.9 mph - N/A   Clear
1:13 AM 17.6 °F 8.2 °F 14.0 °F 86% 30.23 in 10.0 mi NNE 6.9 mph - N/A   Mostly Cloudy
1:32 AM 19.4 °F 10.4 °F 15.8 °F 86% 30.23 in 10.0 mi NNE 6.9 mph - N/A   Overcast
1:53 AM 19.4 °F 11.5 °F 15.8 °F 86% 30.24 in 10.0 mi NNE 5.8 mph - N/A   Overcast
2:12 AM 19.4 °F 12.8 °F 15.8 °F 86% 30.24 in 10.0 mi NNE 4.6 mph - N/A   Overcast
2:33 AM 19.4 °F 10.4 °F 15.8 °F 86% 30.24 in 10.0 mi NNE 6.9 mph - N/A   Overcast
2:53 AM 21.2 °F 14.9 °F 17.6 °F 86% 30.24 in 10.0 mi NE 4.6 mph - N/A   Overcast
3:33 AM 21.2 °F 14.9 °F 17.6 °F 86% 30.25 in 10.0 mi NNE 4.6 mph - N/A   Overcast
3:53 AM 21.2 °F 14.9 °F 17.6 °F 86% 30.25 in 10.0 mi NNE 4.6 mph - N/A   Overcast
4:12 AM 21.2 °F 14.9 °F 17.6 °F 86% 30.26 in 10.0 mi NNE 4.6 mph - N/A   Overcast
4:33 AM 21.2 °F 13.6 °F 17.6 °F 86% 30.27 in 10.0 mi NNE 5.8 mph - N/A   Overcast
4:53 AM 21.2 °F 13.6 °F 17.6 °F 86% 30.28 in 10.0 mi NNE 5.8 mph - N/A   Overcast
5:12 AM 21.2 °F 13.6 °F 17.6 °F 86% 30.28 in 10.0 mi NNE 5.8 mph - N/A   Overcast
5:33 AM 21.2 °F 14.9 °F 17.6 °F 86% 30.28 in 10.0 mi NNE 4.6 mph - N/A   Overcast
6:12 AM 19.4 °F 9.5 °F 17.6 °F 93% 30.29 in 10.0 mi NNE 8.1 mph - N/A   Overcast
6:33 AM 19.4 °F 12.8 °F 17.6 °F 93% 30.30 in 10.0 mi NNE 4.6 mph - N/A   Overcast
7:13 AM 19.4 °F 11.5 °F 17.6 °F 93% 30.31 in 10.0 mi NNE 5.8 mph - N/A   Overcast
7:33 AM 19.4 °F 11.5 °F 17.6 °F 93% 30.31 in 10.0 mi North 5.8 mph - N/A   Overcast
7:53 AM 21.2 °F 14.9 °F 17.6 °F 86% 30.31 in 10.0 mi NNE 4.6 mph - N/A   Overcast
8:13 AM 21.2 °F 13.6 °F 17.6 °F 86% 30.32 in 10.0 mi NNE 5.8 mph - N/A   Overcast
8:33 AM 21.2 °F 12.6 °F 17.6 °F 86% 30.32 in 10.0 mi NNE 6.9 mph - N/A   Overcast
8:53 AM 21.2 °F 14.9 °F 17.6 °F 86% 30.33 in 10.0 mi NNE 4.6 mph - N/A   Overcast
9:13 AM 21.2 °F 14.9 °F 17.6 °F 86% 30.33 in 10.0 mi NNE 4.6 mph - N/A   Overcast
9:33 AM 21.2 °F 13.6 °F 17.6 °F 86% 30.33 in 10.0 mi North 5.8 mph - N/A   Overcast
9:53 AM 23.0 °F 15.8 °F 17.6 °F 80% 30.34 in 10.0 mi NNE 5.8 mph - N/A   Overcast
10:12 AM 23.0 °F 13.9 °F 17.6 °F 80% 30.34 in 10.0 mi NNE 8.1 mph - N/A   Overcast
10:33 AM 23.0 °F 14.7 °F 17.6 °F 80% 30.34 in 10.0 mi NNE 6.9 mph - N/A   Overcast
10:53 AM 24.8 °F 16.1 °F 17.6 °F 74% 30.34 in 10.0 mi NNE 8.1 mph - N/A   Overcast
11:12 AM 24.8 °F 16.1 °F 17.6 °F 74% 30.34 in 10.0 mi NE 8.1 mph - N/A   Overcast
11:33 AM 24.8 °F 16.1 °F 17.6 °F 74% 30.35 in 10.0 mi NNE 8.1 mph - N/A   Overcast
12:12 PM 24.8 °F 14.6 °F 17.6 °F 74% 30.35 in 10.0 mi North 10.4 mph - N/A   Overcast
12:33 PM 24.8 °F 14.6 °F 17.6 °F 74% 30.34 in 10.0 mi North 10.4 mph - N/A   Overcast
1:12 PM 24.8 °F 16.9 °F 17.6 °F 74% 30.34 in 10.0 mi North 6.9 mph - N/A   Overcast
1:33 PM 24.8 °F 15.3 °F 17.6 °F 74% 30.33 in 10.0 mi NNE 9.2 mph - N/A   Overcast
1:53 PM 24.8 °F 16.1 °F 17.6 °F 74% 30.33 in 10.0 mi NNE 8.1 mph - N/A   Overcast
2:12 PM 26.6 °F 17.5 °F 17.6 °F 69% 30.32 in 10.0 mi North 9.2 mph - N/A   Overcast
2:33 PM 24.8 °F 16.9 °F 17.6 °F 74% 30.32 in 10.0 mi North 6.9 mph - N/A   Mostly Cloudy
2:53 PM 26.6 °F 20.0 °F 17.6 °F 69% 30.32 in 10.0 mi North 5.8 mph - N/A   Mostly Cloudy
3:12 PM 26.6 °F 19.1 °F 17.6 °F 69% 30.32 in 10.0 mi NNE 6.9 mph - N/A   Mostly Cloudy
3:33 PM 24.8 °F 19.1 °F 17.6 °F 74% 30.33 in 10.0 mi North 4.6 mph - N/A   Scattered Clouds
4:12 PM 26.6 °F 18.2 °F 17.6 °F 69% 30.32 in 10.0 mi North 8.1 mph - N/A   Clear
4:33 PM 26.6 °F 20.0 °F 17.6 °F 69% 30.33 in 10.0 mi North 5.8 mph - N/A   Clear
4:52 PM 26.6 °F 20.0 °F 17.6 °F 69% 30.33 in 10.0 mi North 5.8 mph - N/A   Clear
5:13 PM 26.6 °F 20.0 °F 17.6 °F 69% 30.33 in 10.0 mi North 5.8 mph - N/A   Clear
5:33 PM 24.8 °F 19.1 °F 15.8 °F 69% 30.33 in 10.0 mi North 4.6 mph - N/A   Clear
5:53 PM 23.0 °F 18.4 °F 15.8 °F 74% 30.34 in 10.0 mi North 3.5 mph - N/A   Clear
6:13 PM 21.2 °F 14.9 °F 15.8 °F 80% 30.34 in 10.0 mi NNW 4.6 mph - N/A   Clear
6:33 PM 21.2 °F 14.9 °F 15.8 °F 80% 30.35 in 10.0 mi NNW 4.6 mph - N/A   Clear
6:53 PM 21.2 °F 14.9 °F 15.8 °F 80% 30.35 in 10.0 mi NNW 4.6 mph - N/A   Clear
7:13 PM 21.2 °F 14.9 °F 15.8 °F 80% 30.35 in 10.0 mi NNW 4.6 mph - N/A   Clear
7:33 PM 21.2 °F 14.9 °F 15.8 °F 80% 30.35 in 10.0 mi NNW 4.6 mph - N/A   Clear
7:53 PM 19.4 °F 14.3 °F 14.0 °F 80% 30.35 in 10.0 mi NW 3.5 mph - N/A   Clear
8:13 PM 17.6 °F 12.3 °F 12.2 °F 79% 30.34 in 10.0 mi NW 3.5 mph - N/A   Clear
8:33 PM 17.6 °F 10.7 °F 14.0 °F 86% 30.35 in 10.0 mi NNW 4.6 mph - N/A   Clear
8:53 PM 15.8 °F 10.2 °F 10.4 °F 79% 30.35 in 10.0 mi North 3.5 mph - N/A   Clear
9:13 PM 17.6 °F - 12.2 °F 79% 30.35 in 10.0 mi Calm Calm - N/A   Clear
9:33 PM 15.8 °F - 12.2 °F 86% 30.35 in 10.0 mi Calm Calm - N/A   Clear
9:52 PM 15.8 °F - 12.2 °F 86% 30.35 in 10.0 mi Calm Calm - N/A   Clear
10:13 PM 12.2 °F - 10.4 °F 92% 30.35 in 10.0 mi Calm Calm - N/A   Clear
10:32 PM 14.0 °F - 12.2 °F 93% 30.35 in 10.0 mi Calm Calm - N/A   Clear
10:53 PM 12.2 °F - 10.4 °F 92% 30.35 in 10.0 mi Calm Calm - N/A   Clear
11:13 PM 14.0 °F - 10.4 °F 86% 30.35 in 10.0 mi Calm Calm - N/A   Clear
11:32 PM 12.2 °F - 10.4 °F 92% 30.35 in 10.0 mi Calm Calm - N/A   Unknown
11:53 PM 12.2 °F - 10.4 °F 92% 30.34 in 10.0 mi Calm Calm - N/A   Clear